Year,Month,Day,Hour,Minute,Value (Times are PST for windgust in km/hr)
2011,07,10,00,03,4.80
2011,07,10,00,04,4.80
2011,07,10,00,05,4.80
2011,07,10,00,06,4.80
2011,07,10,00,07,8.00
2011,07,10,00,08,11.30
2011,07,10,00,09,11.30
2011,07,10,00,10,11.30
2011,07,10,00,11,11.30
2011,07,10,00,13,11.30
2011,07,10,00,14,11.30
2011,07,10,00,15,11.30
2011,07,10,00,16,11.30
2011,07,10,00,17,11.30
2011,07,10,00,18,11.30
2011,07,10,00,19,11.30
2011,07,10,00,20,11.30
2011,07,10,00,21,11.30
2011,07,10,00,22,11.30
2011,07,10,00,23,11.30
2011,07,10,00,24,11.30
2011,07,10,00,25,11.30
2011,07,10,00,26,11.30
2011,07,10,00,27,11.30
2011,07,10,00,28,11.30
2011,07,10,00,29,11.30
2011,07,10,00,34,8.00
2011,07,10,00,35,8.00
2011,07,10,00,36,8.00
2011,07,10,00,38,8.00
2011,07,10,00,39,8.00
2011,07,10,00,40,8.00
2011,07,10,00,41,8.00
2011,07,10,00,42,8.00
2011,07,10,00,43,8.00
2011,07,10,00,44,8.00
2011,07,10,00,45,8.00
2011,07,10,00,46,8.00
2011,07,10,00,47,8.00
2011,07,10,00,48,8.00
2011,07,10,00,49,8.00
2011,07,10,00,50,8.00
2011,07,10,00,51,8.00
2011,07,10,00,52,8.00
2011,07,10,00,53,8.00
2011,07,10,00,54,8.00
2011,07,10,00,55,8.00
2011,07,10,00,56,8.00
2011,07,10,00,57,8.00
2011,07,10,00,58,8.00
2011,07,10,00,59,8.00
2011,07,10,01,00,6.40
2011,07,10,01,01,6.40
2011,07,10,01,02,6.40
2011,07,10,01,03,6.40
2011,07,10,01,04,6.40
2011,07,10,01,05,6.40
2011,07,10,01,06,6.40
2011,07,10,01,07,8.00
2011,07,10,01,08,8.00
2011,07,10,01,09,8.00
2011,07,10,01,10,8.00
2011,07,10,01,11,8.00
2011,07,10,01,12,8.00
2011,07,10,01,14,8.00
2011,07,10,01,15,8.00
2011,07,10,01,16,8.00
2011,07,10,01,17,8.00
2011,07,10,01,18,8.00
2011,07,10,01,19,8.00
2011,07,10,01,20,8.00
2011,07,10,01,21,8.00
2011,07,10,01,22,8.00
2011,07,10,01,23,8.00
2011,07,10,01,24,8.00
2011,07,10,01,25,8.00
2011,07,10,01,26,8.00
2011,07,10,01,27,8.00
2011,07,10,01,28,8.00
2011,07,10,01,29,8.00
2011,07,10,01,31,0.00
2011,07,10,01,32,0.00
2011,07,10,01,33,0.00
2011,07,10,01,35,0.00
2011,07,10,01,36,0.00
2011,07,10,01,37,0.00
2011,07,10,01,38,0.00
2011,07,10,01,39,0.00
2011,07,10,01,40,3.20
2011,07,10,01,41,3.20
2011,07,10,01,42,3.20
2011,07,10,01,43,3.20
2011,07,10,01,45,3.20
2011,07,10,01,46,3.20
2011,07,10,01,47,3.20
2011,07,10,01,48,3.20
2011,07,10,01,49,3.20
2011,07,10,01,50,3.20
2011,07,10,01,51,4.80
2011,07,10,01,52,4.80
2011,07,10,01,54,4.80
2011,07,10,01,55,4.80
2011,07,10,01,56,8.00
2011,07,10,01,57,8.00
2011,07,10,01,59,8.00
2011,07,10,02,00,4.80
2011,07,10,02,01,4.80
2011,07,10,02,02,4.80
2011,07,10,02,03,4.80
2011,07,10,02,05,4.80
2011,07,10,02,06,4.80
2011,07,10,02,07,4.80
2011,07,10,02,08,4.80
2011,07,10,02,09,4.80
2011,07,10,02,11,4.80
2011,07,10,02,12,4.80
2011,07,10,02,13,4.80
2011,07,10,02,14,4.80
2011,07,10,02,16,4.80
2011,07,10,02,17,4.80
2011,07,10,02,18,4.80
2011,07,10,02,19,4.80
2011,07,10,02,21,4.80
2011,07,10,02,22,4.80
2011,07,10,02,23,4.80
2011,07,10,02,24,4.80
2011,07,10,02,25,4.80
2011,07,10,02,26,4.80
2011,07,10,02,27,4.80
2011,07,10,02,28,4.80
2011,07,10,02,30,4.80
2011,07,10,02,31,0.00
2011,07,10,02,32,0.00
2011,07,10,02,33,0.00
2011,07,10,02,34,0.00
2011,07,10,02,36,0.00
2011,07,10,02,37,0.00
2011,07,10,02,38,0.00
2011,07,10,02,39,0.00
2011,07,10,02,40,1.60
2011,07,10,02,42,3.20
2011,07,10,02,43,3.20
2011,07,10,02,44,3.20
2011,07,10,02,45,3.20
2011,07,10,02,46,3.20
2011,07,10,02,47,3.20
2011,07,10,02,48,3.20
2011,07,10,02,49,3.20
2011,07,10,02,50,3.20
2011,07,10,02,51,3.20
2011,07,10,02,52,3.20
2011,07,10,02,53,3.20
2011,07,10,02,54,3.20
2011,07,10,02,55,3.20
2011,07,10,02,56,3.20
2011,07,10,02,57,3.20
2011,07,10,02,58,3.20
2011,07,10,02,59,3.20
2011,07,10,03,01,0.00
2011,07,10,03,02,0.00
2011,07,10,03,03,0.00
2011,07,10,03,04,0.00
2011,07,10,03,05,0.00
2011,07,10,03,07,0.00
2011,07,10,03,08,0.00
2011,07,10,03,09,0.00
2011,07,10,03,10,0.00
2011,07,10,03,11,0.00
2011,07,10,03,12,0.00
2011,07,10,03,13,1.60
2011,07,10,03,14,1.60
2011,07,10,03,16,1.60
2011,07,10,03,17,1.60
2011,07,10,03,18,1.60
2011,07,10,03,20,1.60
2011,07,10,03,21,1.60
2011,07,10,03,22,1.60
2011,07,10,03,23,1.60
2011,07,10,03,24,1.60
2011,07,10,03,26,1.60
2011,07,10,03,27,1.60
2011,07,10,03,28,1.60
2011,07,10,03,29,1.60
2011,07,10,03,31,0.00
2011,07,10,03,32,0.00
2011,07,10,03,33,0.00
2011,07,10,03,34,0.00
2011,07,10,03,35,0.00
2011,07,10,03,36,0.00
2011,07,10,03,37,0.00
2011,07,10,03,38,0.00
2011,07,10,03,39,0.00
2011,07,10,03,40,0.00
2011,07,10,03,41,0.00
2011,07,10,03,42,0.00
2011,07,10,03,43,0.00
2011,07,10,03,44,0.00
2011,07,10,03,46,0.00
2011,07,10,03,47,0.00
2011,07,10,03,48,0.00
2011,07,10,03,50,0.00
2011,07,10,03,51,0.00
2011,07,10,03,52,0.00
2011,07,10,03,53,1.60
2011,07,10,03,54,1.60
2011,07,10,03,55,1.60
2011,07,10,03,56,1.60
2011,07,10,03,57,1.60
2011,07,10,03,59,1.60
2011,07,10,04,00,0.00
2011,07,10,04,01,0.00
2011,07,10,04,02,0.00
2011,07,10,04,03,0.00
2011,07,10,04,05,0.00
2011,07,10,04,06,0.00
2011,07,10,04,07,0.00
2011,07,10,04,08,0.00
2011,07,10,04,09,0.00
2011,07,10,04,10,0.00
2011,07,10,04,11,0.00
2011,07,10,04,12,1.60
2011,07,10,04,13,1.60
2011,07,10,04,15,1.60
2011,07,10,04,16,1.60
2011,07,10,04,17,1.60
2011,07,10,04,18,1.60
2011,07,10,04,20,1.60
2011,07,10,04,21,1.60
2011,07,10,04,22,1.60
2011,07,10,04,23,1.60
2011,07,10,04,25,1.60
2011,07,10,04,26,1.60
2011,07,10,04,27,1.60
2011,07,10,04,28,1.60
2011,07,10,04,30,1.60
2011,07,10,04,31,0.00
2011,07,10,04,32,0.00
2011,07,10,04,33,0.00
2011,07,10,04,35,0.00
2011,07,10,04,36,0.00
2011,07,10,04,37,0.00
2011,07,10,04,38,0.00
2011,07,10,04,39,0.00
2011,07,10,04,40,0.00
2011,07,10,04,41,0.00
2011,07,10,04,42,0.00
2011,07,10,04,43,0.00
2011,07,10,04,44,0.00
2011,07,10,04,45,0.00
2011,07,10,04,46,0.00
2011,07,10,04,47,0.00
2011,07,10,04,48,0.00
2011,07,10,04,49,0.00
2011,07,10,04,50,0.00
2011,07,10,04,51,0.00
2011,07,10,04,52,1.60
2011,07,10,04,53,1.60
2011,07,10,04,54,1.60
2011,07,10,04,55,1.60
2011,07,10,04,56,1.60
2011,07,10,04,57,1.60
2011,07,10,04,58,1.60
2011,07,10,04,59,1.60
2011,07,10,05,00,0.00
2011,07,10,05,01,0.00
2011,07,10,05,02,0.00
2011,07,10,05,03,0.00
2011,07,10,05,04,0.00
2011,07,10,05,05,0.00
2011,07,10,05,06,0.00
2011,07,10,05,07,0.00
2011,07,10,05,09,0.00
2011,07,10,05,10,0.00
2011,07,10,05,11,0.00
2011,07,10,05,12,0.00
2011,07,10,05,14,0.00
2011,07,10,05,15,1.60
2011,07,10,05,16,1.60
2011,07,10,05,17,1.60
2011,07,10,05,19,1.60
2011,07,10,05,20,1.60
2011,07,10,05,21,1.60
2011,07,10,05,22,1.60
2011,07,10,05,24,1.60
2011,07,10,05,25,1.60
2011,07,10,05,26,1.60
2011,07,10,05,27,1.60
2011,07,10,05,28,1.60
2011,07,10,05,29,1.60
2011,07,10,05,30,0.00
2011,07,10,05,31,1.60
2011,07,10,05,32,1.60
2011,07,10,05,34,1.60
2011,07,10,05,35,1.60
2011,07,10,05,36,1.60
2011,07,10,05,37,1.60
2011,07,10,05,38,1.60
2011,07,10,05,39,1.60
2011,07,10,05,40,1.60
2011,07,10,05,41,1.60
2011,07,10,05,42,1.60
2011,07,10,05,43,1.60
2011,07,10,05,44,1.60
2011,07,10,05,45,1.60
2011,07,10,05,46,1.60
2011,07,10,05,47,1.60
2011,07,10,05,49,1.60
2011,07,10,05,50,1.60
2011,07,10,05,51,1.60
2011,07,10,05,52,1.60
2011,07,10,05,54,1.60
2011,07,10,05,55,1.60
2011,07,10,05,56,1.60
2011,07,10,05,57,1.60
2011,07,10,05,59,1.60
2011,07,10,06,00,0.00
2011,07,10,06,01,0.00
2011,07,10,06,02,0.00
2011,07,10,06,04,0.00
2011,07,10,06,05,0.00
2011,07,10,06,06,0.00
2011,07,10,06,07,0.00
2011,07,10,06,08,0.00
2011,07,10,06,09,0.00
2011,07,10,06,11,0.00
2011,07,10,06,13,0.00
2011,07,10,06,14,0.00
2011,07,10,06,15,0.00
2011,07,10,06,16,0.00
2011,07,10,06,18,0.00
2011,07,10,06,19,0.00
2011,07,10,06,20,1.60
2011,07,10,06,21,1.60
2011,07,10,06,23,1.60
2011,07,10,06,24,3.20
2011,07,10,06,25,3.20
2011,07,10,06,27,3.20
2011,07,10,06,28,3.20
2011,07,10,06,29,3.20
2011,07,10,06,30,0.00
2011,07,10,06,31,1.60
2011,07,10,06,32,3.20
2011,07,10,06,33,3.20
2011,07,10,06,34,3.20
2011,07,10,06,35,3.20
2011,07,10,06,37,3.20
2011,07,10,06,38,3.20
2011,07,10,06,39,3.20
2011,07,10,06,40,3.20
2011,07,10,06,42,3.20
2011,07,10,06,43,3.20
2011,07,10,06,44,3.20
2011,07,10,06,46,3.20
2011,07,10,06,47,3.20
2011,07,10,06,48,3.20
2011,07,10,06,49,3.20
2011,07,10,06,50,3.20
2011,07,10,06,51,3.20
2011,07,10,06,52,3.20
2011,07,10,06,53,3.20
2011,07,10,06,55,3.20
2011,07,10,06,56,3.20
2011,07,10,06,57,3.20
2011,07,10,06,58,3.20
2011,07,10,06,59,3.20
2011,07,10,07,00,0.00
2011,07,10,07,01,0.00
2011,07,10,07,02,0.00
2011,07,10,07,03,0.00
2011,07,10,07,04,1.60
2011,07,10,07,05,1.60
2011,07,10,07,06,3.20
2011,07,10,07,07,3.20
2011,07,10,07,08,3.20
2011,07,10,07,10,3.20
2011,07,10,07,11,3.20
2011,07,10,07,12,3.20
2011,07,10,07,13,3.20
2011,07,10,07,14,3.20
2011,07,10,07,15,3.20
2011,07,10,07,16,3.20
2011,07,10,07,17,3.20
2011,07,10,07,18,3.20
2011,07,10,07,20,3.20
2011,07,10,07,21,3.20
2011,07,10,07,22,3.20
2011,07,10,07,23,3.20
2011,07,10,07,25,3.20
2011,07,10,07,26,3.20
2011,07,10,07,27,3.20
2011,07,10,07,28,3.20
2011,07,10,07,30,3.20
2011,07,10,07,31,1.60
2011,07,10,07,32,1.60
2011,07,10,07,33,1.60
2011,07,10,07,34,1.60
2011,07,10,07,35,1.60
2011,07,10,07,36,1.60
2011,07,10,07,37,1.60
2011,07,10,07,38,1.60
2011,07,10,07,39,1.60
2011,07,10,07,40,1.60
2011,07,10,07,41,1.60
2011,07,10,07,42,1.60
2011,07,10,07,43,1.60
2011,07,10,07,44,1.60
2011,07,10,07,45,1.60
2011,07,10,07,46,1.60
2011,07,10,07,47,1.60
2011,07,10,07,48,1.60
2011,07,10,07,49,1.60
2011,07,10,07,50,1.60
2011,07,10,07,51,3.20
2011,07,10,07,52,3.20
2011,07,10,07,54,3.20
2011,07,10,07,55,3.20
2011,07,10,07,56,3.20
2011,07,10,07,58,3.20
2011,07,10,07,59,3.20
2011,07,10,08,00,1.60
2011,07,10,08,01,3.20
2011,07,10,08,02,3.20
2011,07,10,08,03,3.20
2011,07,10,08,04,3.20
2011,07,10,08,05,3.20
2011,07,10,08,06,4.80
2011,07,10,08,07,4.80
2011,07,10,08,08,4.80
2011,07,10,08,09,4.80
2011,07,10,08,10,4.80
2011,07,10,08,12,4.80
2011,07,10,08,13,4.80
2011,07,10,08,14,4.80
2011,07,10,08,16,4.80
2011,07,10,08,17,4.80
2011,07,10,08,18,4.80
2011,07,10,08,19,4.80
2011,07,10,08,20,4.80
2011,07,10,08,21,4.80
2011,07,10,08,22,4.80
2011,07,10,08,23,4.80
2011,07,10,08,24,4.80
2011,07,10,08,25,4.80
2011,07,10,08,26,4.80
2011,07,10,08,27,4.80
2011,07,10,08,29,4.80
2011,07,10,08,30,0.00
2011,07,10,08,31,0.00
2011,07,10,08,32,0.00
2011,07,10,08,33,0.00
2011,07,10,08,34,0.00
2011,07,10,08,35,0.00
2011,07,10,08,36,0.00
2011,07,10,08,37,0.00
2011,07,10,08,38,0.00
2011,07,10,08,39,0.00
2011,07,10,08,40,3.20
2011,07,10,08,41,3.20
2011,07,10,08,42,3.20
2011,07,10,08,43,3.20
2011,07,10,08,44,3.20
2011,07,10,08,45,3.20
2011,07,10,08,47,3.20
2011,07,10,08,48,3.20
2011,07,10,08,49,3.20
2011,07,10,08,50,3.20
2011,07,10,08,52,3.20
2011,07,10,08,53,3.20
2011,07,10,08,54,3.20
2011,07,10,08,55,3.20
2011,07,10,08,57,3.20
2011,07,10,08,58,3.20
2011,07,10,08,59,3.20
2011,07,10,09,00,1.60
2011,07,10,09,02,1.60
2011,07,10,09,03,1.60
2011,07,10,09,04,3.20
2011,07,10,09,05,4.80
2011,07,10,09,07,4.80
2011,07,10,09,08,4.80
2011,07,10,09,09,4.80
2011,07,10,09,10,4.80
2011,07,10,09,11,4.80
2011,07,10,09,12,4.80
2011,07,10,09,13,4.80
2011,07,10,09,14,4.80
2011,07,10,09,15,4.80
2011,07,10,09,17,6.40
2011,07,10,09,18,6.40
2011,07,10,09,19,6.40
2011,07,10,09,20,6.40
2011,07,10,09,21,6.40
2011,07,10,09,22,6.40
2011,07,10,09,23,6.40
2011,07,10,09,24,8.00
2011,07,10,09,25,8.00
2011,07,10,09,26,8.00
2011,07,10,09,27,8.00
2011,07,10,09,28,8.00
2011,07,10,09,29,8.00
2011,07,10,09,30,4.80
2011,07,10,09,31,4.80
2011,07,10,09,32,4.80
2011,07,10,09,33,4.80
2011,07,10,09,35,8.00
2011,07,10,09,36,8.00
2011,07,10,09,37,8.00
2011,07,10,09,38,8.00
2011,07,10,09,40,8.00
2011,07,10,09,41,8.00
2011,07,10,09,42,8.00
2011,07,10,09,43,8.00
2011,07,10,09,45,8.00
2011,07,10,09,46,8.00
2011,07,10,09,47,8.00
2011,07,10,09,48,8.00
2011,07,10,09,50,8.00
2011,07,10,09,51,8.00
2011,07,10,09,52,8.00
2011,07,10,09,53,8.00
2011,07,10,09,55,8.00
2011,07,10,09,56,8.00
2011,07,10,09,57,8.00
2011,07,10,09,58,8.00
2011,07,10,10,00,8.00
2011,07,10,10,01,3.20
2011,07,10,10,02,4.80
2011,07,10,10,03,4.80
2011,07,10,10,05,4.80
2011,07,10,10,06,4.80
2011,07,10,10,07,4.80
2011,07,10,10,08,4.80
2011,07,10,10,10,4.80
2011,07,10,10,11,6.40
2011,07,10,10,12,6.40
2011,07,10,10,14,8.00
2011,07,10,10,15,8.00
2011,07,10,10,16,8.00
2011,07,10,10,17,8.00
2011,07,10,10,19,8.00
2011,07,10,10,20,8.00
2011,07,10,10,21,8.00
2011,07,10,10,22,8.00
2011,07,10,10,24,8.00
2011,07,10,10,25,8.00
2011,07,10,10,26,8.00
2011,07,10,10,27,8.00
2011,07,10,10,28,8.00
2011,07,10,10,30,8.00
2011,07,10,10,31,6.40
2011,07,10,10,32,6.40
2011,07,10,10,33,6.40
2011,07,10,10,34,6.40
2011,07,10,10,35,6.40
2011,07,10,10,36,9.70
2011,07,10,10,37,12.90
2011,07,10,10,38,12.90
2011,07,10,10,39,12.90
2011,07,10,10,40,12.90
2011,07,10,10,41,12.90
2011,07,10,10,42,12.90
2011,07,10,10,43,12.90
2011,07,10,10,45,12.90
2011,07,10,10,46,12.90
2011,07,10,10,47,12.90
2011,07,10,10,48,12.90
2011,07,10,10,50,12.90
2011,07,10,10,51,12.90
2011,07,10,10,52,12.90
2011,07,10,10,53,12.90
2011,07,10,10,54,12.90
2011,07,10,10,55,12.90
2011,07,10,10,56,12.90
2011,07,10,10,57,12.90
2011,07,10,10,59,12.90
2011,07,10,11,00,3.20
2011,07,10,11,01,8.00
2011,07,10,11,02,8.00
2011,07,10,11,03,8.00
2011,07,10,11,04,8.00
2011,07,10,11,05,8.00
2011,07,10,11,06,8.00
2011,07,10,11,07,8.00
2011,07,10,11,09,8.00
2011,07,10,11,10,9.70
2011,07,10,11,11,9.70
2011,07,10,11,12,9.70
2011,07,10,11,14,9.70
2011,07,10,11,15,9.70
2011,07,10,11,16,9.70
2011,07,10,11,17,9.70
2011,07,10,11,19,9.70
2011,07,10,11,20,9.70
2011,07,10,11,21,9.70
2011,07,10,11,22,9.70
2011,07,10,11,23,9.70
2011,07,10,11,25,9.70
2011,07,10,11,26,9.70
2011,07,10,11,27,11.30
2011,07,10,11,28,11.30
2011,07,10,11,29,11.30
2011,07,10,11,31,8.00
2011,07,10,11,32,8.00
2011,07,10,11,33,8.00
2011,07,10,11,34,8.00
2011,07,10,11,36,9.70
2011,07,10,11,37,9.70
2011,07,10,11,38,9.70
2011,07,10,11,39,9.70
2011,07,10,11,41,9.70
2011,07,10,11,42,9.70
2011,07,10,11,43,9.70
2011,07,10,11,44,9.70
2011,07,10,11,46,9.70
2011,07,10,11,47,9.70
2011,07,10,11,48,9.70
2011,07,10,11,49,9.70
2011,07,10,11,50,9.70
2011,07,10,11,51,9.70
2011,07,10,11,52,9.70
2011,07,10,11,54,9.70
2011,07,10,11,55,9.70
2011,07,10,11,56,9.70
2011,07,10,11,57,9.70
2011,07,10,11,58,9.70
2011,07,10,11,59,9.70
2011,07,10,12,00,6.40
2011,07,10,12,01,6.40
2011,07,10,12,02,8.00
2011,07,10,12,04,8.00
2011,07,10,12,05,8.00
2011,07,10,12,06,8.00
2011,07,10,12,07,8.00
2011,07,10,12,08,8.00
2011,07,10,12,09,8.00
2011,07,10,12,10,8.00
2011,07,10,12,11,8.00
2011,07,10,12,12,9.70
2011,07,10,12,13,9.70
2011,07,10,12,14,9.70
2011,07,10,12,15,9.70
2011,07,10,12,16,9.70
2011,07,10,12,17,9.70
2011,07,10,12,19,9.70
2011,07,10,12,20,9.70
2011,07,10,12,21,9.70
2011,07,10,12,22,9.70
2011,07,10,12,23,9.70
2011,07,10,12,25,9.70
2011,07,10,12,26,9.70
2011,07,10,12,27,9.70
2011,07,10,12,29,9.70
2011,07,10,12,30,8.00
2011,07,10,12,31,8.00
2011,07,10,12,32,8.00
2011,07,10,12,34,8.00
2011,07,10,12,35,8.00
2011,07,10,12,36,8.00
2011,07,10,12,37,9.70
2011,07,10,12,38,9.70
2011,07,10,12,39,9.70
2011,07,10,12,40,9.70
2011,07,10,12,41,11.30
2011,07,10,12,42,11.30
2011,07,10,12,43,11.30
2011,07,10,12,44,11.30
2011,07,10,12,45,11.30
2011,07,10,12,46,11.30
2011,07,10,12,48,11.30
2011,07,10,12,49,11.30
2011,07,10,12,50,11.30
2011,07,10,12,51,11.30
2011,07,10,12,53,11.30
2011,07,10,12,54,11.30
2011,07,10,12,55,11.30
2011,07,10,12,56,11.30
2011,07,10,12,58,11.30
2011,07,10,12,59,11.30
2011,07,10,13,00,8.00
2011,07,10,13,01,8.00
2011,07,10,13,02,8.00
2011,07,10,13,03,8.00
2011,07,10,13,04,8.00
2011,07,10,13,05,8.00
2011,07,10,13,06,8.00
2011,07,10,13,07,8.00
2011,07,10,13,08,8.00
2011,07,10,13,09,8.00
2011,07,10,13,10,8.00
2011,07,10,13,12,8.00
2011,07,10,13,13,8.00
2011,07,10,13,14,8.00
2011,07,10,13,15,8.00
2011,07,10,13,17,8.00
2011,07,10,13,18,8.00
2011,07,10,13,19,9.70
2011,07,10,13,20,9.70
2011,07,10,13,22,9.70
2011,07,10,13,23,12.90
2011,07,10,13,24,12.90
2011,07,10,13,25,12.90
2011,07,10,13,26,12.90
2011,07,10,13,27,12.90
2011,07,10,13,28,12.90
2011,07,10,13,29,12.90
2011,07,10,13,30,12.90
2011,07,10,13,31,12.90
2011,07,10,13,32,12.90
2011,07,10,13,33,12.90
2011,07,10,13,34,12.90
2011,07,10,13,35,12.90
2011,07,10,13,37,12.90
2011,07,10,13,38,12.90
2011,07,10,13,39,12.90
2011,07,10,13,40,12.90
2011,07,10,13,41,12.90
2011,07,10,13,42,12.90
2011,07,10,13,43,12.90
2011,07,10,13,44,12.90
2011,07,10,13,45,12.90
2011,07,10,13,46,12.90
2011,07,10,13,47,12.90
2011,07,10,13,48,12.90
2011,07,10,13,49,12.90
2011,07,10,13,51,12.90
2011,07,10,13,52,12.90
2011,07,10,13,53,12.90
2011,07,10,13,54,12.90
2011,07,10,13,55,12.90
2011,07,10,13,56,12.90
2011,07,10,13,57,12.90
2011,07,10,13,58,12.90
2011,07,10,13,59,12.90
2011,07,10,14,01,9.70
2011,07,10,14,02,9.70
2011,07,10,14,03,9.70
2011,07,10,14,05,11.30
2011,07,10,14,06,11.30
2011,07,10,14,07,11.30
2011,07,10,14,08,11.30
2011,07,10,14,10,11.30
2011,07,10,14,11,11.30
2011,07,10,14,12,11.30
2011,07,10,14,13,11.30
2011,07,10,14,14,11.30
2011,07,10,14,15,11.30
2011,07,10,14,16,11.30
2011,07,10,14,17,11.30
2011,07,10,14,18,11.30
2011,07,10,14,20,11.30
2011,07,10,14,21,11.30
2011,07,10,14,22,11.30
2011,07,10,14,23,11.30
2011,07,10,14,24,11.30
2011,07,10,14,26,11.30
2011,07,10,14,27,11.30
2011,07,10,14,28,11.30
2011,07,10,14,29,11.30
2011,07,10,14,30,8.00
2011,07,10,14,31,9.70
2011,07,10,14,32,9.70
2011,07,10,14,33,9.70
2011,07,10,14,35,9.70
2011,07,10,14,36,9.70
2011,07,10,14,37,9.70
2011,07,10,14,38,9.70
2011,07,10,14,39,9.70
2011,07,10,14,40,9.70
2011,07,10,14,41,9.70
2011,07,10,14,42,9.70
2011,07,10,14,44,9.70
2011,07,10,14,45,9.70
2011,07,10,14,46,9.70
2011,07,10,14,48,9.70
2011,07,10,14,49,9.70
2011,07,10,14,50,9.70
2011,07,10,14,51,9.70
2011,07,10,14,53,9.70
2011,07,10,14,54,9.70
2011,07,10,14,55,9.70
2011,07,10,14,56,9.70
2011,07,10,14,57,9.70
2011,07,10,14,59,9.70
2011,07,10,15,00,1.60
2011,07,10,15,01,8.00
2011,07,10,15,02,8.00
2011,07,10,15,03,8.00
2011,07,10,15,04,8.00
2011,07,10,15,05,8.00
2011,07,10,15,06,8.00
2011,07,10,15,07,8.00
2011,07,10,15,08,8.00
2011,07,10,15,09,8.00
2011,07,10,15,10,8.00
2011,07,10,15,11,8.00
2011,07,10,15,12,8.00
2011,07,10,15,13,8.00
2011,07,10,15,15,8.00
2011,07,10,15,16,12.90
2011,07,10,15,17,12.90
2011,07,10,15,18,12.90
2011,07,10,15,20,12.90
2011,07,10,15,21,12.90
2011,07,10,15,22,12.90
2011,07,10,15,23,12.90
2011,07,10,15,24,12.90
2011,07,10,15,25,12.90
2011,07,10,15,26,12.90
2011,07,10,15,27,12.90
2011,07,10,15,28,12.90
2011,07,10,15,29,12.90
2011,07,10,15,31,8.00
2011,07,10,15,32,8.00
2011,07,10,15,33,11.30
2011,07,10,15,35,11.30
2011,07,10,15,36,11.30
2011,07,10,15,37,11.30
2011,07,10,15,38,11.30
2011,07,10,15,39,11.30
2011,07,10,15,40,11.30
2011,07,10,15,41,11.30
2011,07,10,15,42,11.30
2011,07,10,15,43,11.30
2011,07,10,15,44,11.30
2011,07,10,15,45,11.30
2011,07,10,15,46,11.30
2011,07,10,15,47,11.30
2011,07,10,15,48,11.30
2011,07,10,15,49,11.30
2011,07,10,15,50,11.30
2011,07,10,15,51,11.30
2011,07,10,15,52,11.30
2011,07,10,15,53,11.30
2011,07,10,15,54,11.30
2011,07,10,15,55,11.30
2011,07,10,15,56,11.30
2011,07,10,15,58,11.30
2011,07,10,15,59,11.30
2011,07,10,16,00,3.20
2011,07,10,16,01,6.40
2011,07,10,16,02,6.40
2011,07,10,16,04,6.40
2011,07,10,16,05,6.40
2011,07,10,16,06,8.00
2011,07,10,16,07,8.00
2011,07,10,16,08,8.00
2011,07,10,16,10,8.00
2011,07,10,16,11,8.00
2011,07,10,16,12,8.00
2011,07,10,16,13,8.00
2011,07,10,16,14,8.00
2011,07,10,16,16,8.00
2011,07,10,16,17,8.00
2011,07,10,16,18,8.00
2011,07,10,16,19,9.70
2011,07,10,16,21,9.70
2011,07,10,16,22,9.70
2011,07,10,16,23,9.70
2011,07,10,16,24,9.70
2011,07,10,16,25,9.70
2011,07,10,16,26,9.70
2011,07,10,16,27,9.70
2011,07,10,16,29,9.70
2011,07,10,16,30,8.00
2011,07,10,16,31,8.00
2011,07,10,16,32,9.70
2011,07,10,16,33,9.70
2011,07,10,16,34,9.70
2011,07,10,16,35,9.70
2011,07,10,16,36,9.70
2011,07,10,16,37,9.70
2011,07,10,16,38,9.70
2011,07,10,16,39,9.70
2011,07,10,16,40,9.70
2011,07,10,16,41,9.70
2011,07,10,16,43,9.70
2011,07,10,16,44,9.70
2011,07,10,16,45,9.70
2011,07,10,16,46,9.70
2011,07,10,16,47,9.70
2011,07,10,16,49,9.70
2011,07,10,16,50,9.70
2011,07,10,16,51,9.70
2011,07,10,16,52,9.70
2011,07,10,16,53,9.70
2011,07,10,16,55,9.70
2011,07,10,16,56,9.70
2011,07,10,16,57,11.30
2011,07,10,16,58,11.30
2011,07,10,16,59,11.30
2011,07,10,17,00,4.80
2011,07,10,17,01,6.40
2011,07,10,17,02,8.00
2011,07,10,17,03,8.00
2011,07,10,17,04,8.00
2011,07,10,17,05,8.00
2011,07,10,17,06,8.00
2011,07,10,17,07,8.00
2011,07,10,17,08,8.00
2011,07,10,17,09,8.00
2011,07,10,17,11,8.00
2011,07,10,17,12,8.00
2011,07,10,17,13,8.00
2011,07,10,17,14,8.00
2011,07,10,17,15,8.00
2011,07,10,17,16,8.00
2011,07,10,17,17,8.00
2011,07,10,17,18,8.00
2011,07,10,17,19,8.00
2011,07,10,17,20,8.00
2011,07,10,17,21,8.00
2011,07,10,17,22,8.00
2011,07,10,17,23,8.00
2011,07,10,17,24,9.70
2011,07,10,17,25,9.70
2011,07,10,17,26,9.70
2011,07,10,17,27,9.70
2011,07,10,17,28,9.70
2011,07,10,17,29,9.70
2011,07,10,17,30,0.00
2011,07,10,17,31,3.20
2011,07,10,17,33,3.20
2011,07,10,17,34,4.80
2011,07,10,17,35,6.40
2011,07,10,17,36,6.40
2011,07,10,17,37,6.40
2011,07,10,17,39,6.40
2011,07,10,17,40,6.40
2011,07,10,17,41,6.40
2011,07,10,17,42,6.40
2011,07,10,17,43,6.40
2011,07,10,17,45,6.40
2011,07,10,17,46,6.40
2011,07,10,17,47,6.40
2011,07,10,17,48,6.40
2011,07,10,17,49,6.40
2011,07,10,17,50,6.40
2011,07,10,17,51,6.40
2011,07,10,17,52,6.40
2011,07,10,17,53,6.40
2011,07,10,17,54,6.40
2011,07,10,17,55,6.40
2011,07,10,17,56,6.40
2011,07,10,17,57,6.40
2011,07,10,17,59,6.40
2011,07,10,18,00,4.80
2011,07,10,18,01,4.80
2011,07,10,18,02,4.80
2011,07,10,18,04,4.80
2011,07,10,18,05,6.40
2011,07,10,18,06,6.40
2011,07,10,18,08,6.40
2011,07,10,18,09,6.40
2011,07,10,18,10,6.40
2011,07,10,18,11,6.40
2011,07,10,18,13,6.40
2011,07,10,18,14,8.00
2011,07,10,18,15,9.70
2011,07,10,18,16,9.70
2011,07,10,18,17,9.70
2011,07,10,18,18,9.70
2011,07,10,18,19,9.70
2011,07,10,18,20,9.70
2011,07,10,18,21,9.70
2011,07,10,18,22,9.70
2011,07,10,18,23,9.70
2011,07,10,18,24,9.70
2011,07,10,18,25,9.70
2011,07,10,18,26,9.70
2011,07,10,18,28,9.70
2011,07,10,18,29,9.70
2011,07,10,18,30,3.20
2011,07,10,18,31,4.80
2011,07,10,18,32,6.40
2011,07,10,18,33,6.40
2011,07,10,18,34,6.40
2011,07,10,18,35,6.40
2011,07,10,18,36,6.40
2011,07,10,18,38,6.40
2011,07,10,18,39,6.40
2011,07,10,18,40,6.40
2011,07,10,18,41,6.40
2011,07,10,18,43,6.40
2011,07,10,18,44,6.40
2011,07,10,18,45,6.40
2011,07,10,18,46,6.40
2011,07,10,18,47,8.00
2011,07,10,18,49,8.00
2011,07,10,18,50,8.00
2011,07,10,18,51,8.00
2011,07,10,18,52,8.00
2011,07,10,18,53,8.00
2011,07,10,18,54,8.00
2011,07,10,18,55,8.00
2011,07,10,18,56,8.00
2011,07,10,18,57,8.00
2011,07,10,18,59,8.00
2011,07,10,19,00,4.80
2011,07,10,19,01,4.80
2011,07,10,19,02,4.80
2011,07,10,19,04,4.80
2011,07,10,19,05,4.80
2011,07,10,19,06,4.80
2011,07,10,19,07,4.80
2011,07,10,19,08,4.80
2011,07,10,19,09,4.80
2011,07,10,19,10,4.80
2011,07,10,19,11,4.80
2011,07,10,19,12,4.80
2011,07,10,19,13,4.80
2011,07,10,19,14,4.80
2011,07,10,19,15,4.80
2011,07,10,19,16,4.80
2011,07,10,19,17,4.80
2011,07,10,19,19,4.80
2011,07,10,19,20,4.80
2011,07,10,19,21,4.80
2011,07,10,19,22,4.80
2011,07,10,19,24,4.80
2011,07,10,19,25,4.80
2011,07,10,19,26,4.80
2011,07,10,19,27,4.80
2011,07,10,19,28,4.80
2011,07,10,19,30,4.80
2011,07,10,19,31,1.60
2011,07,10,19,32,1.60
2011,07,10,19,33,1.60
2011,07,10,19,35,1.60
2011,07,10,19,36,1.60
2011,07,10,19,37,1.60
2011,07,10,19,38,1.60
2011,07,10,19,39,1.60
2011,07,10,19,41,1.60
2011,07,10,19,42,1.60
2011,07,10,19,43,1.60
2011,07,10,19,44,1.60
2011,07,10,19,45,1.60
2011,07,10,19,46,1.60
2011,07,10,19,47,1.60
2011,07,10,19,48,1.60
2011,07,10,19,49,3.20
2011,07,10,19,50,3.20
2011,07,10,19,52,4.80
2011,07,10,19,53,4.80
2011,07,10,19,54,4.80
2011,07,10,19,55,4.80
2011,07,10,19,56,4.80
2011,07,10,19,57,4.80
2011,07,10,19,58,4.80
2011,07,10,19,59,4.80
2011,07,10,20,00,4.80
2011,07,10,20,01,4.80
2011,07,10,20,03,4.80
2011,07,10,20,04,4.80
2011,07,10,20,05,4.80
2011,07,10,20,07,6.40
2011,07,10,20,08,6.40
2011,07,10,20,09,6.40
2011,07,10,20,11,6.40
2011,07,10,20,12,6.40
2011,07,10,20,13,6.40
2011,07,10,20,14,6.40
2011,07,10,20,16,6.40
2011,07,10,20,17,6.40
2011,07,10,20,18,6.40
2011,07,10,20,19,6.40
2011,07,10,20,20,6.40
2011,07,10,20,22,6.40
2011,07,10,20,23,6.40
2011,07,10,20,24,6.40
2011,07,10,20,25,6.40
2011,07,10,20,27,6.40
2011,07,10,20,28,6.40
2011,07,10,20,29,6.40
2011,07,10,20,31,0.00
2011,07,10,20,32,1.60
2011,07,10,20,33,1.60
2011,07,10,20,34,1.60
2011,07,10,20,36,3.20
2011,07,10,20,37,3.20